This is the latest recevied weather packets stored in our database for station/object N7TUG-8. If no packets are shown the sender has not sent any weather packets the latest 1 day(s).
| Time | Temp. | Humidity | Pressure | Rain* | Wind** | Luminosity | Snow |
|---|---|---|---|---|---|---|---|
| 1778003511 | 14.44° C | 81% | 1015.9 hPa | 0 mm | 2.68 m/s, 149° | - | - |
| 1778002907 | 14.44° C | 81% | 1015.9 hPa | 0 mm | 2.24 m/s, 165° | - | - |
| 1778002701 | 14.44° C | 81% | 1015.9 hPa | 0 mm | 2.24 m/s, 146° | - | - |
| 1778002007 | 14.44° C | 81% | 1015.9 hPa | 0 mm | 2.24 m/s, 159° | - | - |
| 1778001861 | 14.44° C | 81% | 1015.8 hPa | 0 mm | 2.24 m/s, 173° | - | - |
| 1778001006 | 14.44° C | 82% | 1015.8 hPa | 0 mm | 2.68 m/s, 158° | - | - |
| 1778000201 | 14.44° C | 82% | 1015.8 hPa | 0 mm | 1.79 m/s, 152° | - | - |
| 1777999571 | 13.89° C | 82% | 1015.7 hPa | 0 mm | 3.13 m/s, 146° | - | - |
| 1777999406 | 14.44° C | 82% | 1015.7 hPa | 0 mm | 2.24 m/s, 138° | - | - |
| 1777998777 | 14.44° C | 81% | 1015.6 hPa | 0 mm | 2.68 m/s, 134° | - | - |
| 1777998446 | 14.44° C | 81% | 1015.6 hPa | 0 mm | 2.24 m/s, 163° | - | - |
| 1777997887 | 14.44° C | 81% | 1015.6 hPa | 0 mm | 2.24 m/s, 161° | - | - |
| 1777997571 | 14.44° C | 81% | 1015.5 hPa | 0 mm | 2.24 m/s, 165° | - | - |
| 1777997072 | 14.44° C | 81% | 1015.5 hPa | 0 mm | 1.79 m/s, 155° | - | - |
| 1777996635 | 14.44° C | 81% | 1015.5 hPa | 0 mm | 2.24 m/s, 148° | - | - |
| 1777996267 | 14.44° C | 81% | 1015.4 hPa | 0 mm | 1.79 m/s, 161° | - | - |
| 1777995811 | 14.44° C | 82% | 1015.4 hPa | 0 mm | 2.24 m/s, 136° | - | - |
| 1777994971 | 13.89° C | 83% | 1015.3 hPa | 0 mm | 2.24 m/s, 138° | - | - |
| 1777994201 | 13.89° C | 83% | 1015.2 hPa | 0 mm | 1.79 m/s, 160° | - | - |
| 1777993767 | 13.89° C | 84% | 1015.1 hPa | 0 mm | 2.24 m/s, 147° | - | - |
| 1777993295 | 13.89° C | 84% | 1015.1 hPa | 0 mm | 2.68 m/s, 142° | - | - |
| 1777992395 | 13.89° C | 83% | 1015 hPa | 0 mm | 2.24 m/s, 129° | - | - |
| 1777991541 | 13.89° C | 84% | 1014.8 hPa | 0 mm | 2.24 m/s, 144° | - | - |
| 1777991172 | 13.89° C | 84% | 1014.8 hPa | 0 mm | 2.24 m/s, 135° | - | - |
| 1777990755 | 13.89° C | 84% | 1014.7 hPa | 0 mm | 2.68 m/s, 137° | - | - |
* Rain latest hour (hover to see other rain measurements)
** Current wind speed in m/s (hover to see current wind gust speed)